{"data":{"norad_id":52990,"intl_designator":"2022-076E","name":"STARLINK-4286","alt_names":[],"object_type":"PAYLOAD","status":"ACTIVE","operator":null,"country":"US","launch_date":"2022-07-07","launch_site_code":"AFETR","launch_vehicle":null,"mission":null,"orbit_class":"UNKNOWN","rcs_meters":null,"size_class":null,"mass_kg":null,"dimensions":null,"purposes":["comms"],"wikipedia_slug":null,"has_3d_model":false,"image_url":null,"decayed_at":null,"tle_current":{"epoch":"2026-09-19T19:45:19.470528Z","epoch_age_seconds":127461,"freshness":"FRESH","line1":"1 52990U 22076E   26262.82314202 -.00001870  00000+0 -42720-4 0  9998","line2":"2 52990  53.1612 297.2017 0000958  96.6646 263.4466 15.35394378232222","mean_motion":15.35394378,"eccentricity":9.58e-5,"inclination_deg":53.1612,"raan_deg":297.2017,"arg_perigee_deg":96.6646,"mean_anomaly_deg":263.4466,"bstar":-4.272e-5,"rev_number":23222,"period_min":93.786978813596,"perigee_km":459.09426491556,"apogee_km":460.40440393724,"semimajor_km":6837.8863344264,"source":"CELESTRAK","updated_at":"2026-09-20T09:00:40.139404Z"}}}